Location: Dehesa de la Cepeda
(40.6574°N, 4.3013°W)
Time: 12:59:53
(UTC+00:00)

Vanguard 2 - All Passes

Search period start: 02 August 2021 00:00
Search period end: 12 August 2021 00:00
Orbit: 552 x 2937 km, 32.9° (Epoch: 02 August)

Date Brightness Start Highest point End Pass type
(mag) Time Alt. Az. Time Alt. Az. Time Alt. Az.
02 Aug - 04:36:18 10° SSW 04:39:27 22° SSE 04:43:09 10° ESE visible
02 Aug - 06:42:48 10° WSW 06:47:05 37° S 06:53:20 10° ESE daylight
02 Aug - 08:50:12 10° WSW 08:55:29 30° SSW 09:03:24 10° SE daylight
02 Aug - 11:00:00 10° WSW 11:04:43 15° SSW 11:10:37 10° S daylight
03 Aug - 04:53:32 10° SW 04:56:57 27° SSE 05:01:03 10° ESE daylight
03 Aug - 07:00:24 10° WSW 07:04:43 35° S 07:10:56 10° ESE daylight
03 Aug - 09:08:12 10° WSW 09:13:12 24° SSW 09:20:19 10° SSE daylight
04 Aug - 03:05:11 10° S 03:07:02 13° SSE 03:08:52 10° SE visible
04 Aug - 05:10:56 10° SW 05:14:29 30° S 05:18:51 10° ESE daylight
04 Aug - 07:18:05 10° WSW 07:22:21 31° S 07:28:25 10° SE daylight
04 Aug - 09:26:31 10° WSW 09:30:55 18° SSW 09:36:46 10° SSE daylight
05 Aug - 03:21:47 10° SSW 03:24:31 18° SSE 03:27:16 10° ESE visible
05 Aug - 05:28:26 10° WSW 05:32:02 31° S 05:36:32 10° ESE daylight
05 Aug - 07:35:53 10° WSW 07:40:00 26° S 07:45:41 10° SE daylight
05 Aug - 09:45:36 10° SW 09:48:40 13° SSW 09:52:17 10° S daylight
06 Aug - 03:38:52 10° SW 03:42:03 22° SSE 03:45:14 10° ESE visible
06 Aug - 05:46:03 10° WSW 05:49:38 30° S 05:54:08 10° ESE daylight
06 Aug - 07:53:54 10° WSW 07:57:39 21° SSW 08:02:39 10° SSE daylight
07 Aug - 01:50:01 10° S 01:51:56 12° SSE 01:53:42 10° SE visible
07 Aug - 03:56:12 10° SW 03:59:36 26° S 04:03:03 10° ESE visible
07 Aug - 06:03:43 10° WSW 06:07:14 27° S 06:11:37 10° SE daylight
07 Aug - 08:12:17 10° SW 08:15:20 15° SSW 08:19:07 10° SSE daylight
08 Aug - 02:06:24 10° SSW 02:09:31 17° SSE 02:12:15 10° ESE visible
08 Aug - 04:13:41 10° WSW 04:17:10 28° S 04:20:44 10° ESE visible
08 Aug - 06:21:32 10° WSW 06:24:50 23° S 06:28:54 10° SE daylight
08 Aug - 08:32:12 10° SSW 08:33:01 10° SSW 08:33:53 10° SSW daylight
09 Aug - 02:23:25 10° SW 02:27:07 22° S 02:30:15 10° ESE visible
09 Aug - 04:31:17 10° WSW 04:34:44 28° S 04:38:20 10° ESE visible
09 Aug - 06:39:33 10° WSW 06:42:27 18° SSW 06:45:54 10° SSE daylight
10 Aug - 00:33:34 10° SSW 00:36:43 14° SSE 00:39:23 10° SE night (unlit)
10 Aug - 02:40:43 10° SW 02:44:42 26° S 02:48:04 10° ESE visible
10 Aug - 04:48:58 10° WSW 04:52:18 25° S 04:55:49 10° SE visible
10 Aug - 06:58:03 10° SW 07:00:03 13° SSW 07:02:17 10° S daylight
11 Aug - 00:50:01 10° SSW 00:54:23 19° SSE 00:57:48 10° ESE night (unlit)
11 Aug - 02:58:11 10° WSW 03:02:17 29° S 03:05:46 10° ESE visible
11 Aug - 05:06:46 10° WSW 05:09:52 22° SSW 05:13:07 10° SE daylight
11 Aug - 23:00:45 10° S 23:03:33 12° SSE 23:05:59 10° SE night (unlit)
